Location: B?jaj?g
(11.7167°N, 92.6667°E)
Time: 15:27:26
(UTC+00:00)

Cosmos 1437 Rocket - Pass Details

Date: 18 September 2020
Orbit: 506 x 562 km, 81.2° (Epoch: 27 October)

Event Time Altitude Azimuth Distance (km) Brightness Sun altitude
Rises 23:11:06 0° 203° (SSW) 2,602 6.0 -7.6°
Reaches altitude 10° 23:13:24 10° 214° (SW) 1,714 5.0 -7.0°
Maximum altitude 23:16:44 30° 277° (W) 918 3.4 -6.2°
Drops below altitude 10° 23:20:04 10° 340° (NNW) 1,712 5.2 -5.4°
Sets 23:22:22 0° 351° (N) 2,599 6.2 -4.8°
